Location: Lower Kingswood
(51.2667°N, 0.2167°W)
Time: 12:34:38
(UTC+00:00)

Cosmos 2266 Rocket - Pass Details

Date: 26 September 2023
Orbit: 933 x 1008 km, 82.9° (Epoch: 28 November)

Event Time Altitude Azimuth Distance (km) Brightness Sun altitude
Exits shadow 04:07:44 13° 205° (SSW) 2,486 5.7 -16.9°
Maximum altitude 04:13:16 62° 284° (WNW) 1,117 4.1 -16.1°
Drops below altitude 10° 04:19:38 10° 5° (N) 2,790 6.7 -15.2°
Sets 04:22:14 0° 9° (N) 3,749 7.4 -14.8°
